Location: Batesville
(34.7480°N, 83.6110°W)
Time: 05:27:43
(UTC-04:00)

Hubble Space Telescope - Visible Passes

Search period start: 23 April 2018 00:00
Search period end: 03 May 2018 00:00
Orbit: 537 x 541 km, 28.5° (Epoch: 22 April)

Date Brightness Start Highest point End Pass type
(mag) Time Alt. Az. Time Alt. Az. Time Alt. Az.
24 Apr 2.9 21:37:51 10° SSW 21:39:00 13° S 21:39:00 13° S visible
25 Apr 2.4 21:27:02 10° SSW 21:29:53 18° SSE 21:29:53 18° SSE visible
26 Apr 2.2 21:16:20 10° SW 21:19:29 21° SSE 21:20:37 19° SE visible
27 Apr 2.1 21:05:44 10° SW 21:09:05 24° SSE 21:11:13 16° SE visible
27 Apr 3.4 22:46:07 10° WSW 22:46:35 13° WSW 22:46:35 13° WSW visible
28 Apr 1.9 20:55:11 10° SW 20:58:42 27° S 21:01:43 13° ESE visible
28 Apr 2.9 22:35:46 10° WSW 22:37:05 18° WSW 22:37:05 18° WSW visible
29 Apr 1.8 20:44:42 10° SW 20:48:19 29° S 20:51:56 10° ESE visible
29 Apr 2.5 22:25:26 10° WSW 22:27:28 23° SW 22:27:28 23° SW visible
30 Apr 2.1 22:15:07 10° WSW 22:17:47 27° SW 22:17:47 27° SW visible
01 May 2.0 22:04:49 10° WSW 22:08:03 28° SSW 22:08:03 28° SSW visible
02 May 2.0 21:54:33 10° WSW 21:58:02 26° SSW 21:58:17 26° S visible
